Flag for China Weather past 2 weeks in Shanghai, Shanghai Municipality, China

Now
68 °F

Light rain. Passing clouds.


Feels Like: 68 °F
Forecast: 67 / 78 °F
Wind: 8 mph from North

Location: Shanghai Hongqiao Airport

Current Time: Sep 19, 2014 at 2:50:47 PM

Latest Report: Sep 19, 2014 at 2:30 PM


Visibility: N/A

Pressure: 29.89 "Hg

Humidity: 88%

Dew point: 64 °F

Location of ShanghaiLocation

Historic Weather in Shanghai — Graph

°F

Shanghai temperature yesterday

Maximum temperature yesterday: 75 °F (at 12:00 AM)
Minimum temperature yesterday: 66 °F (at 8:30 PM)
Average temperature yesterday: 70 °F

Past Weeks' High & Low Weather Summary

 TemperatureHumidityPressure
High88 °F (Sep 7, 1:30 PM)100% (Sep 13, 1:00 AM)30.04 "Hg (Sep 13, 1:00 AM)
Low64 °F (Sep 19, 8:30 AM)45% (Sep 11, 12:30 PM)29.71 "Hg (Sep 8, 4:30 PM)
Average78 °F74%29.87 "Hg
* Reported Sep 4 1:00 PM — Sep 19 1:30 PM, Shanghai, Weather by CustomWeather, © 2014

Note: Actual official high and low records may vary slightly from our data, if they occured in-between our weather recording intervals... More about our weather records

Advertising

Shanghai weather history for previous 24 hours

 ConditionsComfort  
Time TempWeatherWind HumidityBarometerVisibility
1:30 PM
Sep 19
68 °FPassing clouds.8 mph88%29.89 "HgN/A
1:00 PM68 °FLight rain. Passing clouds.8 mph88%29.89 "HgN/A
12:30 PM68 °FLight rain. Passing clouds.6 mph88%29.89 "HgN/A
12:00 PM68 °FPassing clouds.8 mph88%29.92 "HgN/A
11:30 AM68 °FPassing clouds.6 mph88%29.92 "HgN/A
11:00 AM66 °FLight rain. Passing clouds.8 mph94%29.92 "HgN/A
10:30 AM66 °FLight rain. Scattered clouds.8 mph94%29.95 "Hg5 mi
10:00 AM66 °FLight rain. Partly sunny.8 mph94%29.95 "Hg4 mi
9:30 AM66 °FLight rain. Partly sunny.6 mph94%29.95 "Hg4 mi
9:00 AM66 °FLight rain. Scattered clouds.3 mph94%29.95 "Hg4 mi
8:30 AM64 °FLight rain. Scattered clouds.8 mph94%29.95 "Hg5 mi
8:00 AM66 °FRain. Scattered clouds.8 mph94%29.95 "Hg4 mi
7:30 AM66 °FLight rain. Scattered clouds.6 mph88%29.95 "Hg4 mi
7:00 AM66 °FLight rain. Clear.6 mph88%29.95 "HgN/A
6:30 AM66 °FLight rain. Clear.6 mph88%29.95 "HgN/A
6:00 AM66 °FLight rain. Clear.3 mph94%29.92 "HgN/A
5:30 AM66 °FLight rain. Clear.6 mph88%29.92 "HgN/A
5:00 AM66 °FLight rain. Clear.6 mph88%29.92 "HgN/A
4:30 AM68 °FLight rain. Clear.3 mph83%29.92 "HgN/A
4:00 AM68 °FLight rain. Passing clouds.No wind78%29.92 "HgN/A
3:30 AM68 °FPassing clouds.1 mph83%29.95 "HgN/A
3:00 AM68 °FPassing clouds.3 mph88%29.95 "HgN/A
2:30 AM68 °FClear.3 mph83%29.95 "Hg10 mi
2:00 AM68 °FClear.1 mph78%29.95 "Hg10 mi
1:30 AM68 °FPassing clouds.3 mph83%29.95 "HgN/A
1:00 AM68 °FClear.6 mph88%29.95 "Hg10 mi
12:30 AM68 °FClear.6 mph88%29.98 "Hg10 mi
12:00 AM68 °FClear.3 mph88%29.98 "Hg10 mi
11:30 PM
Sep 18
68 °FPassing clouds.3 mph88%29.98 "HgN/A
11:00 PM68 °FPassing clouds.6 mph88%30.01 "HgN/A
10:30 PM68 °FPassing clouds.8 mph88%30.01 "HgN/A
10:00 PM68 °FPassing clouds.6 mph88%30.01 "HgN/A
9:30 PM66 °FLight rain. Clear.3 mph94%30.01 "HgN/A
9:00 PM66 °FLight rain. Clear.3 mph94%30.01 "HgN/A
8:30 PM66 °FLight rain. Clear.3 mph94%30.01 "HgN/A
8:00 PM68 °FLight rain. Clear.3 mph83%30.01 "HgN/A
7:30 PM68 °FLight rain. Clear.1 mph83%30.01 "HgN/A
7:00 PM68 °FLight rain. Clear.3 mph78%30.01 "HgN/A
6:30 PM68 °FLight rain. Passing clouds.8 mph73%29.98 "HgN/A
6:00 PM72 °FPassing clouds.15 mph61%29.98 "HgN/A
5:30 PM72 °FOvercast.10 mph73%29.98 "HgN/A
5:00 PM72 °FOvercast.10 mph69%29.98 "HgN/A
4:30 PM72 °FOvercast.10 mph69%29.98 "HgN/A
4:00 PM72 °FOvercast.10 mph69%29.98 "HgN/A
3:30 PM72 °FMostly cloudy.10 mph78%29.98 "HgN/A
3:00 PM72 °FMostly cloudy.8 mph78%29.98 "HgN/A
2:30 PM72 °FMore clouds than sun.8 mph78%29.98 "HgN/A
2:00 PM72 °FMore clouds than sun.10 mph78%29.98 "HgN/A
Weather by CustomWeather, © 2014

See weather overviewHow to use our weather pages